Weather History for Dodge City, KS

Change the Weather History Date:

Sunday, June 30, 2013

  Actual Average Record
Temperature  
Mean Temperature 72 °F -  
Max Temperature 86 °F 91 °F 108 °F (2011)
Min Temperature 57 °F 66 °F 50 °F (1902)
Cooling Degree Days 6    
Growing Degree Days 22 (Base 50)    
Moisture  
Dew Point 48 °F    
Average Humidity 42    
Maximum Humidity 72    
Minimum Humidity 15    
Precipitation  
Precipitation 0.00 in - - ()
Sea Level Pressure  
Sea Level Pressure 30.01 in    
Wind  
Wind Speed 7 mph (NNE)    
Max Wind Speed 20 mph    
Max Gust Speed 26 mph    
Visibility 10 miles    
Events      
Averages and records for this station are not official NWS values.
T = Trace of Precipitation, MM = Missing Value Source: NWS Daily Summary

Daily Weather History Graph

Daily Weather History Graph

Search for Another Location

Airport:

Trip Planner

Search our weather history database for the weather conditions in past years. The results will help you decide how hot, cold, wet, or windy it might be!

Date:

Astronomy

Jun. 30, 2013 Rise Set
Actual Time 6:21 AM CDT 9:05 PM CDT
Civil Twilight 5:50 AM CDT 9:36 PM CDT
Nautical Twilight 5:11 AM CDT 10:15 PM CDT
Astronomical Twilight 4:27 AM CDT 10:59 PM CDT
Moon 1:15 AM CDT (6/30) 2:26 PM CDT (6/30)
Length of Visible Light 15h 46m
Length of Day
14h 44m
Last Quarter, 45% of the Moon is Illuminated
Jun 30
Last Quarter
Jul 8
New
Jul 15
First Quarter
Jul 22
Full
Jul 29
Last Quarter

Hourly Weather History & Observations

Time (CDT) Temp. Dew Point Humidity Pressure Visibility Wind Dir Wind Speed Gust Speed Precip Events Conditions
12:52 AM 68.0 °F 46.9 °F 47% 29.97 in 10.0 mi Calm Calm - N/A   Partly Cloudy
1:52 AM 64.0 °F 48.9 °F 58% 29.98 in 10.0 mi NNE 5.8 mph - N/A   Clear
2:52 AM 62.1 °F 48.9 °F 62% 29.99 in 10.0 mi North 4.6 mph - N/A   Clear
3:52 AM 60.1 °F 48.9 °F 67% 29.99 in 10.0 mi NW 5.8 mph - N/A   Clear
4:52 AM 59.0 °F 48.9 °F 69% 30.00 in 10.0 mi NW 5.8 mph - N/A   Clear
5:52 AM 57.0 °F 48.0 °F 72% 30.01 in 10.0 mi NNW 3.5 mph - N/A   Scattered Clouds
6:52 AM 59.0 °F 50.0 °F 72% 30.02 in 10.0 mi North 5.8 mph - N/A   Scattered Clouds
7:52 AM 66.9 °F 51.1 °F 57% 30.03 in 10.0 mi North 5.8 mph - N/A   Clear
8:52 AM 73.0 °F 50.0 °F 44% 30.04 in 10.0 mi NNE 11.5 mph - N/A   Clear
9:52 AM 75.0 °F 51.1 °F 43% 30.04 in 10.0 mi NNE 11.5 mph 19.6 mph N/A   Scattered Clouds
10:52 AM 78.1 °F 50.0 °F 37% 30.04 in 10.0 mi North 10.4 mph 20.7 mph N/A   Clear
11:52 AM 80.1 °F 50.0 °F 35% 30.04 in 10.0 mi North 12.7 mph 19.6 mph N/A   Partly Cloudy
12:52 PM 82.0 °F 48.9 °F 31% 30.01 in 10.0 mi NNE 16.1 mph 23.0 mph N/A   Clear
1:52 PM 82.9 °F 46.9 °F 28% 30.00 in 10.0 mi NNE 15.0 mph 23.0 mph N/A   Partly Cloudy
2:52 PM 84.0 °F 46.0 °F 26% 30.01 in 10.0 mi NNE 17.3 mph 24.2 mph N/A   Partly Cloudy
3:52 PM 84.0 °F 45.0 °F 25% 30.00 in 10.0 mi North 15.0 mph 23.0 mph N/A   Clear
4:52 PM 86.0 °F 43.0 °F 22% 29.99 in 10.0 mi NNE 19.6 mph 26.5 mph N/A   Partly Cloudy
5:52 PM 82.9 °F 44.1 °F 25% 30.00 in 10.0 mi NNE 11.5 mph - N/A   Clear
6:52 PM 82.9 °F 43.0 °F 24% 29.99 in 10.0 mi NE 17.3 mph 24.2 mph N/A   Scattered Clouds
7:52 PM 80.1 °F 44.1 °F 28% 29.97 in 10.0 mi NE 12.7 mph - N/A   Clear
8:52 PM 73.9 °F 44.1 °F 34% 29.99 in 10.0 mi NE 10.4 mph - N/A   Clear
9:52 PM 69.1 °F 46.9 °F 45% 30.02 in 10.0 mi ENE 6.9 mph - N/A   Clear
10:52 PM 64.9 °F 48.9 °F 56% 30.05 in 10.0 mi ENE 5.8 mph - N/A   Clear
11:52 PM 63.0 °F 48.9 °F 60% 30.07 in 10.0 mi East 5.8 mph - N/A   Clear